Date String (YYYY-MM-DD hh:mm:ss) UTC,Instrument flags,absolute air pressure of the measurement (hPa),sample flow rate (lpm),inlet stack bypass flow (lpm),air temperature of the measurement (°C),ambient temperature measured by the external sensor (°C),aerosol sample conditioner tube jacket temperature (°C),OPC LED temperature (°C),internal box temperature (°C),relative humidity of the measurement (%),span deviation,mass concentration of particles derived from Lorenz-Mie calculation of OPC scattering (μg/m³),mass concentration of particles derived from Lorenz-Mie calculation of OPC scattering (μg/m³),mass concentration of particles derived from Lorenz-Mie calculation of OPC scattering (μg/m³)
DateTimeUTC,F1_M11,P_M11,Q1_M11,Q2_M11,T1_M11,T2_M11,T3_M11,T4_M11,T5_M11,U1_M11,ZSPAN_M11,X2_M11,X0_M11,X1_M11
2023-09-05 18:00:00,SystemResetWarning,0833.3,5.00,000.00,027.9,024.6,000.0,036.3,029.1,24.1,0000.0,0003.12,0008.84,0002.27
2023-09-05 18:01:00,SystemResetWarning,0833.3,5.00,000.00,027.9,024.9,000.0,036.3,029.2,24.5,0000.0,0003.15,0008.88,0002.27
2023-09-05 18:02:00,SystemResetWarning,0833.3,5.01,000.00,027.9,025.3,000.0,036.3,029.3,24.9,0000.0,0003.16,0008.89,0002.28
2023-09-05 18:03:00,SystemResetWarning,0833.3,5.00,000.00,027.9,025.7,000.0,036.3,029.4,24.6,0000.0,0003.15,0008.71,0002.28
2023-09-05 18:04:00,SystemResetWarning,0833.2,5.00,000.00,027.9,026.0,000.0,036.3,029.5,23.9,0000.0,0003.16,0008.90,0002.28
2023-09-05 18:05:00,SystemResetWarning,0833.3,4.99,000.00,028.0,026.3,000.0,036.3,029.6,24.4,0000.0,0003.18,0008.83,0002.28
2023-09-05 18:06:00,SystemResetWarning,0833.2,5.01,000.00,028.0,026.5,000.0,036.4,029.7,23.7,0000.0,0003.17,0009.20,0002.29
2023-09-05 18:07:00,SystemResetWarning,0833.2,5.01,000.00,028.0,026.7,000.0,036.4,029.7,23.6,0000.0,0003.18,0009.23,0002.30
2023-09-05 18:08:00,SystemResetWarning,0833.2,5.00,000.00,028.1,026.9,000.0,036.4,029.8,23.8,0000.0,0003.18,0009.26,0002.29
2023-09-05 18:09:00,SystemResetWarning,0833.3,5.00,000.00,028.1,027.1,000.0,036.4,029.8,23.5,0000.0,0003.18,0010.51,0002.29
2023-09-05 18:10:00,SystemResetWarning,0833.3,5.00,000.00,028.2,027.2,000.0,036.5,029.9,23.6,0000.0,0003.17,0011.31,0002.30
2023-09-05 18:11:00,SystemResetWarning,0833.4,4.99,000.00,028.2,026.8,000.0,036.4,029.8,23.7,0000.0,0003.19,0012.04,0002.32
2023-09-05 18:12:00,SystemResetWarning,0833.4,5.00,000.00,028.1,025.3,000.0,036.4,029.3,24.2,0000.0,0003.18,0011.46,0002.32
2023-09-05 18:13:00,SystemResetWarning,0833.3,5.00,000.00,028.0,024.3,000.0,036.3,029.1,23.6,0000.0,0003.16,0011.20,0002.32
2023-09-05 18:14:00,SystemResetWarning,0833.3,5.01,000.00,027.9,024.4,000.0,036.2,029.1,23.4,0000.0,0003.19,0011.35,0002.31
2023-09-05 18:15:00,SystemResetWarning,0833.3,5.00,000.00,027.8,024.7,000.0,036.3,029.1,23.9,0000.0,0003.21,0011.16,0002.31
2023-09-05 18:16:00,SystemResetWarning,0833.3,5.00,000.00,027.8,025.1,000.0,036.3,029.2,23.8,0000.0,0003.23,0010.94,0002.34
2023-09-05 18:17:00,SystemResetWarning,0833.3,5.01,000.00,027.8,025.5,000.0,036.3,029.3,23.7,0000.0,0003.22,0010.75,0002.35
2023-09-05 18:18:00,SystemResetWarning,0833.3,5.00,000.00,027.9,025.9,000.0,036.3,029.4,24.2,0000.0,0003.19,0010.52,0002.34
2023-09-05 18:19:00,SystemResetWarning,0833.4,5.00,000.00,027.9,026.1,000.0,036.3,029.5,23.9,0000.0,0003.21,0011.39,0002.36
2023-09-05 18:20:00,SystemResetWarning,0833.3,5.00,000.00,027.9,026.4,000.0,036.3,029.6,23.5,0000.0,0003.18,0010.35,0002.35
2023-09-05 18:21:00,SystemResetWarning,0833.4,5.00,000.00,028.0,026.6,000.0,036.3,029.6,23.8,0000.0,0003.14,0010.43,0002.32
2023-09-05 18:22:00,SystemResetWarning,0833.4,4.99,000.00,028.0,026.8,000.0,036.3,029.7,24.5,0000.0,0003.14,0009.51,0002.30
2023-09-05 18:23:00,SystemResetWarning,0833.5,4.99,000.00,028.1,027.0,000.0,036.4,029.8,24.0,0000.0,0003.15,0009.37,0002.31
2023-09-05 18:24:00,SystemResetWarning,0833.4,5.00,000.00,028.1,027.1,000.0,036.4,029.9,23.7,0000.0,0003.21,0008.90,0002.33
2023-09-05 18:25:00,SystemResetWarning,0833.4,5.00,000.00,028.2,027.3,000.0,036.4,029.9,23.2,0000.0,0003.18,0008.66,0002.34
2023-09-05 18:26:00,SystemResetWarning,0833.4,5.00,000.00,028.2,027.3,000.0,036.4,029.9,23.2,0000.0,0003.14,0008.55,0002.36
2023-09-05 18:27:00,SystemResetWarning,0833.4,4.99,000.00,028.2,026.2,000.0,036.4,029.6,23.4,0000.0,0003.11,0009.00,0002.36
2023-09-05 18:28:00,SystemResetWarning,0833.3,5.01,000.00,028.0,024.5,000.0,036.3,029.1,23.6,0000.0,0003.11,0009.89,0002.36
2023-09-05 18:29:00,SystemResetWarning,0833.3,5.00,000.00,027.9,024.2,000.0,036.3,029.1,23.7,0000.0,0003.15,0009.83,0002.37
2023-09-05 18:30:00,SystemResetWarning,0833.3,5.01,000.00,027.9,024.5,000.0,036.3,029.0,24.2,0000.0,0003.17,0009.56,0002.38
2023-09-05 18:31:00,SystemResetWarning,0833.3,5.00,000.00,027.8,024.9,000.0,036.3,029.1,24.0,0000.0,0003.16,0009.10,0002.39
2023-09-05 18:32:00,SystemResetWarning,0833.4,5.00,000.00,027.8,025.3,000.0,036.3,029.3,24.3,0000.0,0003.22,0008.91,0002.42
2023-09-05 18:33:00,SystemResetWarning,0833.4,5.00,000.00,027.8,025.7,000.0,036.3,029.4,24.2,0000.0,0003.25,0008.46,0002.45
2023-09-05 18:34:00,SystemResetWarning,0833.4,5.00,000.00,027.9,026.0,000.0,036.3,029.5,24.8,0000.0,0003.25,0008.66,0002.46
2023-09-05 18:35:00,SystemResetWarning,0833.4,5.00,000.00,027.9,026.3,000.0,036.3,029.6,24.4,0000.0,0003.22,0009.53,0002.47
2023-09-05 18:36:00,SystemResetWarning,0833.4,4.99,000.00,028.0,026.6,000.0,036.3,029.6,24.0,0000.0,0003.25,0009.83,0002.48
2023-09-05 18:37:00,SystemResetWarning,0833.4,4.99,000.00,028.0,026.8,000.0,036.3,029.7,24.4,0000.0,0003.27,0010.17,0002.50
2023-09-05 18:38:00,SystemResetWarning,0833.4,5.00,000.00,028.1,026.9,000.0,036.4,029.8,24.1,0000.0,0003.26,0010.16,0002.49
2023-09-05 18:39:00,SystemResetWarning,0833.4,5.01,000.00,028.1,027.1,000.0,036.4,029.9,23.8,0000.0,0003.27,0009.69,0002.49
2023-09-05 18:40:00,SystemResetWarning,0833.3,5.01,000.00,028.2,027.1,000.0,036.4,029.9,23.7,0000.0,0003.31,0009.58,0002.52
2023-09-05 18:41:00,SystemResetWarning,0833.3,4.99,000.00,028.1,025.8,000.0,036.4,029.4,24.4,0000.0,0003.33,0010.09,0002.54
2023-09-05 18:42:00,SystemResetWarning,0833.3,5.00,000.00,028.0,024.4,000.0,036.3,029.0,24.0,0000.0,0003.36,0010.52,0002.56
2023-09-05 18:43:00,SystemResetWarning,0833.3,5.01,000.00,027.9,024.2,000.0,036.2,029.0,24.2,0000.0,0003.36,0011.13,0002.57
2023-09-05 18:44:00,SystemResetWarning,0833.3,5.02,000.00,027.8,024.5,000.0,036.2,029.0,24.4,0000.0,0003.38,0011.35,0002.58
2023-09-05 18:45:00,SystemResetWarning,0833.3,4.99,000.00,027.8,024.9,000.0,036.2,029.1,24.2,0000.0,0003.39,0011.28,0002.58
2023-09-05 18:46:00,SystemResetWarning,0833.4,5.00,000.00,027.8,025.3,000.0,036.2,029.2,24.2,0000.0,0003.40,0011.22,0002.58
2023-09-05 18:47:00,SystemResetWarning,0833.3,5.00,000.00,027.8,025.7,000.0,036.2,029.3,23.8,0000.0,0003.37,0010.88,0002.58
2023-09-05 18:48:00,SystemResetWarning,0833.3,5.00,000.00,027.8,026.0,000.0,036.2,029.4,24.0,0000.0,0003.40,0010.96,0002.57
2023-09-05 18:49:00,SystemResetWarning,0833.3,5.00,000.00,027.9,026.3,000.0,036.2,029.5,23.7,0000.0,0003.42,0010.64,0002.58
2023-09-05 18:50:00,SystemResetWarning,0833.4,4.99,000.00,027.9,026.5,000.0,036.3,029.6,23.9,0000.0,0003.43,0010.26,0002.60
2023-09-05 18:51:00,SystemResetWarning,0833.3,5.00,000.00,028.0,026.7,000.0,036.3,029.7,24.1,0000.0,0003.40,0009.96,0002.60
2023-09-05 18:52:00,SystemResetWarning,0833.4,4.99,000.00,028.0,026.9,000.0,036.3,029.7,24.3,0000.0,0003.38,0010.31,0002.59
2023-09-05 18:53:00,SystemResetWarning,0833.4,4.99,000.00,028.1,027.1,000.0,036.3,029.8,23.7,0000.0,0003.37,0010.56,0002.59
2023-09-05 18:54:00,SystemResetWarning,0833.4,5.00,000.00,028.1,027.2,000.0,036.4,029.9,23.7,0000.0,0003.38,0009.89,0002.60
2023-09-05 18:55:00,SystemResetWarning,0833.4,5.00,000.00,028.2,026.5,000.0,036.3,029.7,24.5,0000.0,0003.35,0009.92,0002.60
2023-09-05 18:56:00,SystemResetWarning,0833.4,5.00,000.00,028.0,024.8,000.0,036.3,029.2,24.2,0000.0,0003.38,0010.53,0002.59
2023-09-05 18:57:00,SystemResetWarning,0833.3,5.00,000.00,027.9,024.1,000.0,036.2,029.0,24.0,0000.0,0003.39,0009.98,0002.60
2023-09-05 18:58:00,SystemResetWarning,0833.3,5.01,000.00,027.8,024.3,000.0,036.2,029.0,24.2,0000.0,0003.41,0009.93,0002.61
2023-09-05 18:59:00,SystemResetWarning,0833.3,5.00,000.00,027.7,024.7,000.0,036.2,029.0,24.6,0000.0,0003.37,0009.69,0002.60
